Location: *
(2.5500°S, 65.9667°W)
Time: 16:08:42
(UTC+00:00)

A-11 Canister half - Pass Details

Date: 12 April 2024
Orbit: 1525 x 1683 km, 47.3° (Epoch: 21 May)

Event Time Altitude Azimuth Distance (km) Brightness Sun altitude
Exits shadow 09:05:22 14° 218° (SW) 3,524 10.5 -20.0°
Maximum altitude 09:14:14 86° 129° (SE) 1,639 9.1 -17.8°
Drops below altitude 10° 09:24:17 10° 41° (NE) 3,911 11.9 -15.3°
Sets 09:27:27 0° 41° (NE) 4,909 12.5 -14.5°
